Location: Deer Path Park
(40.5570°N, 74.8450°W)
Time: 00:25:39
(UTC-04:00)

Iridium 49 - Visible Passes

Search period start: 29 March 2015 00:00
Search period end: 08 April 2015 00:00
Orbit: 776 x 779 km, 86.4° (Epoch: 27 March)

Date Brightness Start Highest point End Pass type
(mag) Time Alt. Az. Time Alt. Az. Time Alt. Az.
29 Mar 6.7 03:56:26 50° E 03:56:26 50° E 04:01:26 10° NNE visible
29 Mar 7.4 05:36:55 18° W 05:37:31 18° WNW 05:41:01 10° NNW visible
30 Mar 7.8 03:23:14 27° E 03:23:14 27° E 03:27:25 10° NNE visible
30 Mar 6.7 05:03:42 33° W 05:03:42 33° W 05:08:20 10° NNW visible
31 Mar 8.5 02:49:58 15° ENE 02:49:58 15° ENE 02:52:42 10° NE visible
31 Mar 6.1 04:30:27 58° WNW 04:30:27 58° WNW 04:35:09 10° N visible
01 Apr 6.4 03:57:11 62° NE 03:57:11 62° NE 04:01:39 10° N visible
01 Apr 7.8 05:37:40 13° WNW 05:37:53 13° WNW 05:40:00 10° NW visible
02 Apr 7.4 03:23:54 36° ENE 03:23:54 36° ENE 03:27:50 10° NNE visible
02 Apr 7.3 05:04:22 23° WNW 05:04:22 23° WNW 05:07:59 10° NNW visible
03 Apr 8.2 02:50:35 21° ENE 02:50:35 21° ENE 02:53:36 10° NNE visible
03 Apr 6.7 04:31:04 38° NW 04:31:04 38° NW 04:35:03 10° NNW visible
04 Apr 8.8 02:17:16 11° ENE 02:17:16 11° ENE 02:18:13 10° ENE visible
04 Apr 6.5 03:57:44 53° NNW 03:57:44 53° NNW 04:01:44 10° N visible
05 Apr 7.1 03:24:24 43° NE 03:24:24 43° NE 03:28:07 10° N visible
05 Apr 7.7 05:04:53 16° WNW 05:04:53 16° WNW 05:07:20 10° NW visible
06 Apr 7.9 02:51:03 27° NE 02:51:03 27° NE 02:54:09 10° NNE visible
06 Apr 7.2 04:31:31 26° NW 04:31:31 26° NW 04:34:49 10° NNW visible
07 Apr 8.5 02:17:41 16° ENE 02:17:41 16° ENE 02:19:39 10° NE visible
07 Apr 6.9 03:58:09 39° NNW 03:58:09 39° NNW 04:01:42 10° N visible
